Temp
83 82 81 82 81 82 85 84 83 84 84 83 83 85 88 90 89 89 89 87 86 85 86 85 85 85 85 86 86 86 86 87 87 87 87 88 90 89 89 92 91 90 93 93 92 92 92 92 93 94 93 93 92 91 90 89 89 92 90 89 89 90 90
83 83 82 82 81 81 81 83 83 83 84 84 85 83 84 86 88 89 88 88 87 87 87 87 85 86 86 86 87 86 85 86 87 87 88 88 88 89 91 91 91 90 90 93 94 93 92 93 92 92 93 93 92 91 91 90 89 90 91 90 90 90 90
81 82 81 80 81 81 80 81 81 82 83 84 85 86 86 85 87 86 87 88 87 87 89 89 87 87 87 86 86 86 87 88 88 89 89 91 89 91 91 91 91 92 93 93 92 95 94 93 92 92 92 92 94 92 91 90 90 91 90 89 90 91 88
79 79 79 79 79 80 81 80 80 81 83 84 83 83 83 84 86 87 87 88 87 88 87 91 90 90 89 87 87 87 88 88 89 91 92 93 93 93 91 90 90 92 93 93 95 94 97 94 94 92 90 91 91 93 93 92 93 92 91 89 90 91 89
78 78 79 79 79 80 80 82 81 81 81 83 83 84 85 84 84 84 86 89 90 89 92 93 94 92 90 91 91 91 90 91 90 91 92 93 92 93 92 93 93 93 93 94 93 92 91 92 94 93 92 90 92 92 91 92 92 91 90 90 90 91 92
78 79 78 78 78 79 80 81 81 82 82 81 82 82 83 85 86 86 87 88 88 91 92 91 93 92 91 92 92 93 92 91 90 90 92 92 92 93 93 93 95 94 95 94 95 94 93 93 93 94 93 95 94 95 95 94 94 94 92 90 90 92 94
77 78 79 80 79 80 80 81 81 82 82 83 83 84 84 85 84 87 88 89 91 89 91 93 94 94 92 92 91 91 91 93 91 92 93 94 93 93 93 94 94 96 96 95 94 94 94 93 92 92 93 94 94 95 93 91 92 93 92 90 89 90 89
76 77 78 80 81 81 81 81 80 81 81 81 81 82 82 83 84 83 83 87 89 90 89 92 94 93 93 92 92 92 93 93 94 93 93 94 94 93 94 95 94 94 95 95 95 95 95 93 95 94 94 94 94 93 94 92 90 93 93 92 90 91 94
78 77 78 79 79 80 80 80 79 80 79 79 78 79 79 80 81 82 82 82 82 83 85 90 94 94 93 93 92 92 93 93 93 94 93 94 95 95 95 95 95 95 95 96 96 95 95 96 95 93 93 93 93 92 93 91 93 93 92 91 90 90 92
76 76 77 78 78 79 79 79 79 79 78 78 78 78 79 79 79 80 81 81 81 80 81 84 88 90 91 91 93 94 94 92 93 95 94 94 94 95 95 96 96 96 96 96 97 97 95 95 96 94 90 91 91 91 91 92 92 93 93 92 91 91 89
76 75 76 76 76 77 77 77 77 77 77 77 78 78 78 79 79 79 80 82 82 81 81 81 83 85 90 91 91 92 93 93 94 94 94 94 95 95 96 96 97 96 96 96 96 96 97 94 94 93 92 93 92 91 91 92 92 91 92 92 92 91 91
75 75 74 74 75 75 75 75 76 77 77 77 77 77 77 77 78 79 79 80 82 82 82 81 83 83 84 87 90 89 91 92 94 94 94 94 95 96 96 96 97 97 96 96 95 95 97 95 95 94 91 91 92 93 92 91 91 90 90 92 93 93 91
75 74 74 74 74 75 75 75 75 76 76 76 76 77 78 78 77 78 78 79 81 82 82 82 83 82 82 84 87 88 88 90 90 90 93 94 94 96 96 96 97 97 97 96 95 95 95 96 94 93 92 92 92 93 92 91 91 89 89 90 90 90 90
73 75 75 76 75 74 74 74 74 75 75 75 76 76 77 78 79 78 78 78 80 81 81 82 82 82 82 83 83 85 85 87 90 90 90 91 91 93 94 96 96 95 95 95 94 95 95 95 95 95 94 93 93 93 92 91 90 90 89 90 91 92 92
74 74 75 76 75 74 74 74 74 74 75 75 76 76 76 76 78 79 79 80 80 80 81 82 81 81 81 82 83 83 84 85 86 88 89 90 89 90 91 93 94 94 94 93 94 95 95 95 95 95 94 93 93 92 93 92 93 94 93 91 91 91 92
73 73 74 74 74 74 74 74 74 74 74 75 75 75 75 76 77 77 78 79 80 80 81 81 80 80 80 81 82 83 84 84 84 85 86 86 86 87 88 90 90 90 90 90 90 90 91 92 93 95 94 93 93 93 91 92 93 91 85 84 90 90 90
72 73 74 74 73 74 74 74 74 74 74 74 74 74 74 76 76 76 77 78 78 79 80 81 80 80 80 80 81 83 83 83 82 84 84 85 85 86 86 86 88 88 88 88 89 88 88 90 92 93 94 94 93 93 92 93 92 77 74 75 78 86 89
72 73 73 73 73 73 73 73 73 73 73 73 73 74 73 73 74 74 75 77 77 78 80 79 79 79 79 80 80 81 81 81 82 82 82 83 84 84 85 85 86 85 86 88 88 87 89 90 89 90 92 94 94 93 92 94 75 70 71 72 73 79 87
73 73 73 72 72 72 73 73 73 72 73 73 73 72 73 73 73 73 75 76 77 78 78 78 79 79 79 80 80 80 81 81 81 81 81 82 83 84 84 84 84 84 84 86 87 88 87 87 89 89 90 92 90 90 92 91 68 68 69 70 69 71 79
73 73 73 73 73 73 73 73 73 73 73 73 74 74 74 75 74 75 76 76 77 76 77 78 79 79 79 79 79 80 80 81 81 81 81 83 83 83 83 83 83 84 85 86 86 86 87 87 87 88 88 89 89 88 90 82 68 65 67 67 67 68 75
73 72 72 73 73 73 72 72 72 73 73 72 73 73 74 75 75 75 76 76 75 76 77 78 79 79 79 79 80 80 80 81 81 80 80 81 82 83 82 82 82 83 84 85 85 85 85 86 87 87 89 89 90 89 87 74 61 63 64 64 65 67 73
73 72 72 73 72 72 72 72 72 72 72 72 73 74 74 74 74 74 74 76 76 76 77 78 78 79 79 78 79 79 79 80 79 78 78 79 80 82 81 81 81 81 82 83 85 86 87 87 88 87 87 87 87 89 79 75 58 62 62 61 64 65 83
73 73 73 74 75 74 74 74 74 73 73 73 74 73 73 74 74 73 73 74 76 75 75 75 76 78 78 77 77 77 78 78 77 77 77 77 78 79 81 81 81 81 81 81 82 84 85 85 86 85 84 84 84 85 78 77 63 58 60 61 61 69 86
74 75 76 76 76 75 75 74 75 74 74 73 74 74 73 73 72 71 71 72 74 73 73 72 70 71 76 78 77 76 77 77 77 77 77 76 77 78 79 80 81 80 80 78 79 80 81 82 79 77 77 79 80 81 78 75 64 56 58 58 59 69 83
74 76 76 76 76 75 74 73 73 73 74 74 72 72 73 72 71 70 69 69 70 71 70 69 69 69 69 69 73 75 76 75 75 75 75 74 75 76 77 78 78 77 78 78 78 77 76 75 73 72 72 73 73 72 74 74 67 57 56 57 58 68 81
74 76 77 80 81 78 74 73 74 74 73 72 71 73 73 72 70 69 68 68 69 68 67 67 68 69 70 70 69 70 71 72 73 73 74 74 73 74 75 76 76 75 74 73 70 69 69 70 70 69 69 70 70 70 70 69 69 66 55 55 58 60 73
76 76 76 78 76 74 74 74 75 75 73 72 72 74 74 73 72 69 69 68 66 65 65 66 68 68 69 70 70 69 69 68 68 68 68 69 69 70 71 72 73 74 72 68 67 66 65 65 65 65 65 67 68 67 67 68 69 67 56 56 55 57 64
77 78 79 76 73 73 74 75 75 76 76 74 74 73 73 71 69 68 68 67 64 64 66 67 67 68 68 67 67 67 67 67 66 66 66 65 65 64 64 66 67 66 65 65 63 63 63 63 62 61 61 62 63 64 65 67 66 66 61 55 54 56 60
75 76 77 75 74 75 76 75 75 75 75 76 75 74 73 71 67 67 67 65 64 66 67 67 67 67 66 66 64 64 65 66 66 65 66 64 63 62 61 61 62 62 63 62 61 60 60 60 61 60 60 60 60 61 63 65 65 62 64 57 54 56 59
76 76 78 80 79 77 77 74 75 74 75 76 75 74 72 70 68 67 67 65 66 67 67 67 66 66 65 64 64 65 64 64 64 64 64 64 63 62 62 61 61 62 61 61 61 60 60 60 60 61 61 60 60 61 63 64 63 61 60 59 55 55 56
75 76 77 76 77 77 78 77 74 74 74 75 74 73 73 73 71 69 67 68 70 68 67 66 66 65 64 63 64 64 63 63 63 63 64 64 63 63 63 62 62 60 60 61 60 60 60 61 61 60 61 61 60 61 62 64 64 63 61 59 58 57 56
76 76 77 77 76 76 77 78 76 74 73 74 75 73 72 74 73 69 70 73 72 71 70 68 67 67 65 65 64 65 65 63 63 63 62 62 61 62 63 63 63 62 62 62 62 62 61 60 61 61 61 61 61 62 63 64 64 64 64 63 62 60 58
74 75 74 74 75 75 76 77 76 74 73 71 72 73 73 75 76 74 73 74 76 75 73 72 70 68 67 66 66 66 67 66 67 66 65 65 63 63 62 62 62 64 63 62 61 61 61 61 62 61 61 61 61 62 63 63 63 63 63 63 62 62 62
73 73 74 75 75 75 74 74 73 72 72 70 69 70 71 75 76 74 73 74 75 74 72 72 73 73 72 71 67 66 66 66 64 67 67 65 65 65 65 65 64 62 61 62 64 63 62 63 64 64 64 62 63 62 62 61 62 63 64 64 64 65 65
73 73 73 73 73 73 72 71 71 70 71 70 70 70 68 70 73 75 74 73 72 70 70 71 71 73 74 74 72 69 66 66 65 65 64 62 59 57 55 57 62 64 61 59 56 59 66 67 65 66 68 66 66 64 63 64 63 61 55 59 59 67 70
74 74 73 74 74 73 72 72 71 70 69 69 70 69 69 70 72 74 76 75 74 72 69 70 72 74 75 76 76 75 72 70 68 66 64 64 62 60 56 51 46 51 60 58 53 49 47 53 62 65 67 62 61 65 68 66 62 52 46 47 47 48 50
74 73 73 74 73 72 72 71 71 70 69 69 70 70 70 71 73 73 75 75 75 75 72 70 68 70 71 71 71 71 73 74 73 71 69 69 69 68 65 62 56 45 45 50 49 46 44 45 47 52 57 63 61 55 48 50 47 45 47 47 47 48 49
75 74 74 74 73 72 71 71 71 69 67 69 70 71 71 71 73 74 77 78 78 77 75 74 71 68 69 69 68 68 69 70 70 71 71 70 70 69 68 67 65 60 47 44 47 46 44 43 44 45 47 52 57 61 58 50 46 46 46 46 47 47 46
MSLP
1013.08 1013.12 1013.32 1013.24 1013.32 1013.28 1012.96 1013.00 1013.12 1013.00 1013.04 1013.32 1013.36 1013.04 1012.68 1012.48 1012.56 1012.64 1012.84 1013.12 1013.44 1013.60 1013.56 1013.76 1014.08 1014.24 1014.44 1014.52 1014.64 1014.72 1014.84 1014.96 1015.08 1015.32 1015.48 1015.40 1015.24 1015.28 1015.52 1015.44 1015.68 1015.76 1015.56 1015.84 1015.92 1015.96 1015.84 1015.88 1015.96 1015.96 1016.00 1016.28 1016.48 1016.56 1016.76 1016.80 1016.92 1016.84 1016.88 1016.92 1017.04 1017.04 1017.04
1013.40 1013.32 1013.32 1013.24 1013.36 1013.40 1013.28 1013.08 1013.08 1013.04 1013.04 1013.04 1013.00 1013.08 1013.08 1012.84 1012.64 1012.72 1012.84 1012.96 1013.20 1013.32 1013.36 1013.40 1013.64 1013.92 1014.12 1014.32 1014.24 1014.48 1014.76 1014.80 1014.80 1014.92 1015.04 1015.20 1015.16 1015.12 1015.04 1015.20 1015.28 1015.56 1015.64 1015.36 1015.32 1015.40 1015.60 1015.76 1015.88 1016.00 1016.08 1016.16 1016.32 1016.32 1016.48 1016.60 1016.68 1016.72 1016.68 1016.76 1016.96 1017.00 1016.92
1013.76 1013.56 1013.64 1013.76 1013.52 1013.52 1013.56 1013.24 1013.20 1013.12 1013.00 1012.84 1012.80 1012.68 1012.76 1012.88 1012.64 1012.76 1012.88 1012.96 1013.12 1013.08 1013.04 1013.20 1013.36 1013.44 1013.60 1013.96 1014.24 1014.28 1014.32 1014.44 1014.60 1014.76 1014.96 1014.96 1015.12 1015.00 1014.96 1014.96 1015.12 1015.16 1015.16 1015.16 1015.24 1015.32 1015.32 1015.56 1015.64 1015.76 1015.96 1016.04 1015.92 1016.12 1016.24 1016.32 1016.44 1016.48 1016.56 1016.72 1016.80 1016.84 1017.00
1014.16 1014.16 1013.92 1013.80 1013.68 1013.44 1013.32 1013.28 1013.24 1013.08 1012.84 1012.68 1012.72 1012.76 1012.76 1012.72 1012.48 1012.44 1012.60 1012.72 1012.92 1012.96 1013.04 1012.84 1013.08 1013.16 1013.24 1013.60 1013.96 1014.12 1014.16 1014.12 1014.12 1014.20 1014.28 1014.28 1014.48 1014.56 1014.76 1014.92 1015.04 1014.84 1015.00 1015.08 1014.92 1015.04 1014.88 1015.08 1015.44 1015.72 1015.92 1015.96 1016.00 1015.84 1015.92 1016.04 1016.00 1016.20 1016.32 1016.56 1016.64 1016.56 1016.72
1014.24 1014.12 1013.92 1013.92 1013.84 1013.72 1013.56 1013.28 1013.28 1013.16 1013.12 1012.76 1012.60 1012.36 1012.32 1012.44 1012.72 1012.68 1012.48 1012.36 1012.36 1012.56 1012.36 1012.32 1012.36 1012.64 1012.88 1013.00 1013.20 1013.44 1013.72 1013.76 1013.84 1013.80 1013.84 1013.80 1013.96 1014.08 1014.44 1014.60 1014.68 1014.80 1014.72 1014.72 1014.76 1014.96 1015.20 1015.24 1015.24 1015.48 1015.72 1015.92 1015.92 1015.88 1015.96 1015.92 1015.92 1016.00 1016.16 1016.28 1016.48 1016.36 1016.44
1014.32 1014.16 1014.16 1014.04 1013.92 1013.76 1013.52 1013.36 1013.16 1013.04 1013.04 1013.00 1012.84 1012.64 1012.40 1012.20 1012.12 1012.60 1012.40 1012.16 1012.28 1012.12 1012.00 1012.08 1012.08 1012.20 1012.68 1012.68 1012.72 1012.80 1013.04 1013.32 1013.44 1013.52 1013.56 1013.64 1013.84 1014.04 1014.12 1014.24 1014.28 1014.40 1014.52 1014.68 1014.48 1014.64 1014.92 1015.20 1015.20 1015.16 1015.36 1015.36 1015.52 1015.48 1015.44 1015.60 1015.60 1015.68 1015.88 1016.08 1016.16 1016.08 1016.08
1014.52 1014.28 1014.08 1013.88 1013.76 1013.60 1013.40 1013.16 1013.16 1013.04 1012.88 1012.80 1012.68 1012.44 1012.32 1012.16 1012.20 1012.00 1012.08 1012.04 1011.84 1012.20 1012.16 1011.96 1011.88 1011.80 1012.08 1012.24 1012.44 1012.64 1012.88 1012.96 1013.20 1013.36 1013.28 1013.36 1013.44 1013.80 1013.80 1013.84 1013.92 1014.00 1014.00 1014.08 1014.36 1014.32 1014.60 1014.88 1015.00 1015.08 1015.08 1015.16 1015.08 1015.12 1015.24 1015.44 1015.52 1015.40 1015.52 1015.88 1016.12 1016.12 1016.12
1014.44 1014.40 1014.08 1013.76 1013.60 1013.48 1013.32 1013.20 1013.24 1013.08 1012.92 1012.84 1012.88 1012.80 1012.60 1012.24 1012.04 1012.12 1012.24 1012.04 1011.84 1011.76 1011.92 1011.80 1011.64 1011.60 1011.64 1011.88 1012.04 1012.36 1012.52 1012.52 1012.60 1012.88 1013.00 1013.16 1013.12 1013.40 1013.44 1013.56 1013.64 1013.64 1013.76 1014.00 1013.96 1014.04 1014.28 1014.48 1014.52 1014.68 1014.84 1014.96 1015.00 1015.08 1015.04 1015.20 1015.52 1015.44 1015.40 1015.68 1015.92 1015.96 1015.68
1014.04 1014.08 1014.08 1013.88 1013.76 1013.64 1013.40 1013.44 1013.44 1013.20 1013.20 1013.20 1013.16 1013.00 1012.84 1012.56 1012.32 1012.12 1012.12 1012.24 1012.28 1012.20 1011.96 1011.68 1011.44 1011.24 1011.36 1011.60 1011.88 1012.08 1012.12 1012.24 1012.36 1012.52 1012.76 1013.00 1012.92 1013.04 1013.00 1013.12 1013.28 1013.24 1013.56 1013.72 1013.72 1013.76 1013.92 1014.08 1014.20 1014.36 1014.52 1014.72 1014.76 1014.92 1015.00 1015.16 1015.20 1015.20 1015.28 1015.48 1015.68 1015.88 1015.72
1014.36 1014.32 1014.16 1013.88 1013.80 1013.64 1013.60 1013.48 1013.32 1013.28 1013.24 1013.20 1013.08 1012.96 1012.84 1012.64 1012.44 1012.20 1012.00 1012.00 1012.12 1012.44 1012.36 1012.00 1011.68 1011.40 1011.40 1011.56 1011.64 1011.60 1011.80 1012.12 1012.12 1012.12 1012.40 1012.64 1012.68 1012.76 1012.68 1012.64 1012.76 1012.84 1013.20 1013.32 1013.32 1013.52 1013.64 1013.72 1013.84 1014.08 1014.44 1014.72 1014.80 1014.88 1014.96 1015.00 1015.04 1015.04 1015.00 1015.28 1015.48 1015.60 1015.76
1014.32 1014.40 1014.32 1014.28 1014.24 1014.04 1013.84 1013.76 1013.64 1013.52 1013.36 1013.28 1013.08 1012.92 1012.72 1012.60 1012.44 1012.32 1012.08 1011.84 1011.88 1011.92 1012.04 1012.12 1011.88 1011.80 1011.56 1011.44 1011.76 1011.64 1011.56 1011.76 1011.84 1011.96 1012.08 1012.28 1012.28 1012.40 1012.36 1012.36 1012.36 1012.48 1012.80 1012.96 1013.16 1013.16 1013.28 1013.56 1013.64 1013.88 1014.20 1014.52 1014.64 1014.72 1014.80 1014.84 1014.80 1014.96 1015.00 1014.96 1014.96 1015.20 1015.36
1014.32 1014.48 1014.64 1014.48 1014.40 1014.28 1014.24 1014.00 1013.64 1013.44 1013.40 1013.24 1013.04 1012.96 1012.80 1012.68 1012.48 1012.24 1012.04 1011.80 1011.52 1011.64 1011.72 1011.84 1011.80 1011.80 1011.88 1011.68 1011.56 1011.72 1011.64 1011.48 1011.52 1011.60 1011.72 1011.92 1012.00 1012.04 1012.04 1012.12 1012.20 1012.28 1012.40 1012.56 1012.88 1012.96 1013.00 1013.20 1013.40 1013.60 1013.96 1014.12 1014.24 1014.24 1014.40 1014.48 1014.60 1014.76 1014.92 1014.88 1014.76 1014.80 1014.96
1014.44 1014.56 1014.48 1014.44 1014.36 1014.24 1014.04 1013.96 1013.80 1013.60 1013.40 1013.36 1013.20 1012.96 1012.76 1012.56 1012.44 1012.24 1012.08 1011.92 1011.60 1011.40 1011.44 1011.44 1011.48 1011.60 1011.80 1011.80 1011.72 1011.60 1011.68 1011.52 1011.48 1011.48 1011.44 1011.52 1011.68 1011.60 1011.68 1011.88 1011.96 1012.12 1012.28 1012.28 1012.52 1012.80 1012.92 1012.96 1013.24 1013.36 1013.60 1013.88 1013.96 1014.08 1014.12 1014.28 1014.40 1014.60 1014.76 1014.80 1014.76 1014.80 1014.92
1014.44 1014.20 1014.12 1014.00 1014.16 1014.28 1014.24 1014.00 1013.88 1013.76 1013.64 1013.52 1013.32 1013.04 1012.80 1012.44 1012.16 1012.08 1012.00 1011.88 1011.56 1011.36 1011.36 1011.32 1011.36 1011.44 1011.52 1011.52 1011.68 1011.72 1011.60 1011.48 1011.28 1011.32 1011.36 1011.32 1011.40 1011.56 1011.56 1011.56 1011.68 1011.84 1011.92 1012.04 1012.36 1012.48 1012.56 1012.76 1012.96 1013.08 1013.28 1013.52 1013.72 1013.68 1013.76 1014.00 1014.28 1014.40 1014.48 1014.52 1014.48 1014.48 1014.56
1014.48 1014.32 1014.12 1014.00 1014.12 1014.16 1014.08 1014.04 1013.88 1013.80 1013.56 1013.40 1013.20 1013.08 1012.84 1012.60 1012.28 1011.92 1011.76 1011.52 1011.48 1011.36 1011.28 1011.12 1011.28 1011.36 1011.40 1011.40 1011.44 1011.44 1011.40 1011.40 1011.36 1011.20 1011.28 1011.40 1011.56 1011.68 1011.72 1011.68 1011.72 1011.72 1011.88 1012.04 1012.20 1012.16 1012.20 1012.28 1012.44 1012.72 1013.04 1013.20 1013.32 1013.48 1013.52 1013.72 1013.88 1013.80 1013.88 1014.12 1014.24 1014.24 1014.40
1014.52 1014.44 1014.20 1014.20 1014.28 1014.16 1014.00 1013.96 1013.88 1013.76 1013.60 1013.48 1013.28 1013.04 1012.88 1012.60 1012.32 1012.12 1011.92 1011.64 1011.36 1011.28 1011.04 1010.96 1011.20 1011.28 1011.32 1011.28 1011.16 1011.04 1011.00 1011.24 1011.36 1011.32 1011.32 1011.52 1011.68 1011.76 1011.80 1011.80 1011.80 1011.92 1012.12 1012.24 1012.36 1012.40 1012.32 1012.32 1012.32 1012.36 1012.68 1013.00 1013.16 1013.20 1013.40 1013.52 1013.36 1013.44 1013.72 1013.92 1014.00 1014.20 1014.40
1014.60 1014.40 1014.12 1014.16 1014.16 1014.16 1014.08 1013.96 1013.80 1013.72 1013.60 1013.48 1013.36 1013.20 1012.92 1012.56 1012.32 1012.08 1011.96 1011.64 1011.36 1011.20 1010.96 1010.88 1011.04 1011.04 1011.04 1011.12 1010.88 1010.80 1010.84 1011.08 1011.28 1011.28 1011.44 1011.44 1011.56 1011.64 1011.84 1011.96 1011.96 1012.04 1012.16 1012.28 1012.40 1012.56 1012.64 1012.68 1012.64 1012.52 1012.52 1012.72 1012.84 1013.00 1013.00 1013.04 1013.00 1013.44 1013.76 1014.08 1014.28 1014.36 1014.36
1014.52 1014.36 1014.32 1014.28 1014.24 1014.20 1014.16 1014.00 1013.92 1013.84 1013.68 1013.44 1013.28 1013.04 1012.92 1012.80 1012.52 1012.36 1012.08 1011.68 1011.48 1011.16 1010.80 1010.88 1010.88 1010.88 1010.88 1010.76 1010.72 1010.80 1010.92 1010.92 1011.00 1011.20 1011.32 1011.40 1011.56 1011.60 1011.68 1011.80 1012.00 1012.16 1012.16 1012.16 1012.24 1012.40 1012.44 1012.60 1012.68 1012.68 1012.56 1012.48 1012.44 1012.68 1012.84 1012.76 1013.28 1013.52 1013.92 1014.16 1014.40 1014.48 1014.28
1014.32 1014.24 1014.32 1014.40 1014.36 1014.28 1014.12 1014.04 1013.92 1013.80 1013.56 1013.32 1013.24 1013.16 1012.92 1012.68 1012.60 1012.36 1011.96 1011.68 1011.28 1011.04 1010.92 1010.76 1010.72 1010.68 1010.64 1010.56 1010.60 1010.64 1010.64 1010.68 1010.84 1010.88 1011.04 1011.16 1011.24 1011.36 1011.48 1011.68 1011.84 1012.00 1012.08 1012.16 1011.92 1011.96 1012.32 1012.48 1012.52 1012.60 1012.52 1012.48 1012.60 1012.64 1012.60 1012.92 1013.80 1013.84 1014.12 1014.32 1014.44 1014.56 1014.52
1014.12 1014.16 1014.16 1014.08 1014.04 1014.08 1014.00 1013.84 1013.76 1013.52 1013.36 1013.20 1012.96 1012.84 1012.60 1012.36 1012.24 1011.92 1011.52 1011.32 1011.08 1011.08 1010.80 1010.56 1010.36 1010.36 1010.40 1010.32 1010.36 1010.36 1010.36 1010.40 1010.52 1010.68 1010.68 1010.72 1010.84 1011.04 1011.36 1011.56 1011.72 1011.72 1011.76 1011.80 1011.80 1011.96 1012.08 1012.20 1012.44 1012.40 1012.52 1012.52 1012.60 1012.72 1012.68 1013.64 1014.28 1014.28 1014.40 1014.52 1014.60 1014.64 1014.60
1014.16 1014.20 1014.32 1014.16 1014.12 1014.08 1014.08 1014.00 1013.84 1013.56 1013.36 1013.28 1013.12 1012.76 1012.44 1012.16 1011.84 1011.64 1011.32 1011.08 1011.16 1010.76 1010.48 1010.32 1010.20 1010.04 1010.04 1010.12 1010.08 1010.08 1010.16 1010.24 1010.36 1010.64 1010.60 1010.56 1010.68 1010.88 1011.24 1011.48 1011.60 1011.68 1011.64 1011.64 1011.76 1011.88 1012.04 1012.04 1012.12 1012.16 1012.20 1012.32 1012.36 1012.56 1013.08 1014.32 1014.68 1014.60 1014.72 1014.72 1014.76 1014.72 1014.60
1014.00 1014.16 1014.32 1014.16 1014.28 1014.16 1014.16 1014.04 1013.84 1013.60 1013.40 1013.16 1012.96 1012.60 1012.40 1012.24 1011.88 1011.76 1011.52 1011.08 1010.92 1010.68 1010.40 1010.12 1010.00 1009.88 1009.84 1010.08 1010.08 1010.12 1010.16 1010.24 1010.44 1010.60 1010.72 1010.72 1010.68 1010.76 1011.12 1011.32 1011.44 1011.64 1011.56 1011.52 1011.44 1011.40 1011.44 1011.60 1011.60 1011.92 1012.08 1012.12 1012.32 1012.48 1013.76 1014.44 1014.84 1014.80 1014.80 1014.76 1014.72 1014.72 1014.20
1014.04 1014.12 1014.12 1013.96 1013.80 1013.84 1013.76 1013.60 1013.48 1013.40 1013.28 1013.04 1012.76 1012.56 1012.48 1012.24 1012.04 1011.92 1011.64 1011.36 1010.96 1010.76 1010.52 1010.32 1010.16 1009.88 1009.80 1009.96 1009.96 1010.12 1010.16 1010.28 1010.56 1010.64 1010.76 1010.84 1010.88 1010.92 1010.92 1011.08 1011.28 1011.40 1011.32 1011.56 1011.56 1011.60 1011.68 1011.76 1011.84 1011.92 1012.16 1012.32 1012.52 1012.72 1013.80 1014.32 1015.00 1015.04 1014.92 1014.80 1014.72 1014.56 1013.92
1013.72 1013.72 1013.60 1013.76 1013.56 1013.56 1013.56 1013.44 1013.32 1013.20 1013.16 1013.00 1012.80 1012.60 1012.44 1012.32 1012.36 1012.24 1012.08 1011.72 1011.28 1011.12 1011.00 1010.92 1010.96 1010.56 1009.96 1009.76 1009.92 1010.16 1010.28 1010.36 1010.48 1010.64 1010.76 1010.88 1011.00 1010.92 1010.88 1010.88 1010.92 1011.20 1011.12 1011.52 1011.72 1011.84 1011.92 1012.00 1012.48 1012.84 1012.88 1012.92 1012.96 1013.04 1013.64 1014.44 1014.96 1015.20 1015.16 1014.92 1014.76 1014.52 1013.92
1013.80 1013.44 1013.52 1013.64 1013.40 1013.56 1013.64 1013.68 1013.48 1013.32 1013.00 1012.92 1013.08 1012.80 1012.56 1012.48 1012.44 1012.52 1012.52 1012.28 1011.96 1011.68 1011.60 1011.52 1011.40 1011.08 1010.88 1010.64 1010.16 1010.08 1010.12 1010.32 1010.52 1010.56 1010.64 1010.88 1010.92 1010.88 1010.96 1011.00 1011.12 1011.20 1011.20 1011.40 1011.60 1012.00 1012.40 1012.76 1013.12 1013.44 1013.60 1013.80 1013.96 1014.00 1014.08 1014.48 1014.88 1015.12 1015.16 1015.08 1014.88 1014.56 1014.00
1013.72 1013.64 1013.64 1013.08 1012.88 1013.20 1013.52 1013.48 1013.40 1013.32 1013.28 1013.32 1013.32 1012.84 1012.68 1012.64 1012.72 1012.88 1012.80 1012.64 1012.36 1012.24 1012.20 1012.04 1011.72 1011.36 1011.12 1010.92 1010.72 1010.48 1010.44 1010.48 1010.56 1010.56 1010.60 1010.76 1010.88 1010.96 1010.96 1010.96 1011.12 1011.40 1011.64 1011.96 1012.24 1012.80 1013.04 1013.12 1013.40 1013.80 1014.24 1014.40 1014.60 1014.72 1014.72 1014.80 1014.80 1014.88 1015.08 1015.08 1015.04 1014.88 1014.56
1013.56 1013.68 1013.68 1013.32 1013.64 1013.64 1013.64 1013.56 1013.44 1013.40 1013.44 1013.44 1013.24 1012.96 1012.76 1012.68 1012.80 1012.96 1013.00 1012.96 1012.84 1012.72 1012.52 1012.24 1011.84 1011.60 1011.32 1011.12 1011.08 1011.04 1010.96 1010.96 1011.00 1011.08 1011.04 1011.04 1011.16 1011.28 1011.36 1011.40 1011.56 1011.60 1011.80 1012.40 1012.80 1013.12 1013.48 1013.76 1014.00 1014.32 1014.60 1014.72 1014.84 1015.00 1015.08 1015.00 1014.92 1014.88 1015.04 1015.08 1015.12 1015.36 1015.32
1013.52 1013.40 1013.12 1013.52 1013.88 1013.84 1013.84 1013.64 1013.44 1013.28 1013.28 1013.28 1013.28 1013.16 1013.04 1013.04 1013.24 1013.28 1013.32 1013.28 1013.28 1013.04 1012.64 1012.36 1012.16 1011.92 1011.68 1011.56 1011.56 1011.60 1011.48 1011.44 1011.48 1011.36 1011.52 1011.64 1011.72 1012.04 1012.32 1012.48 1012.40 1012.48 1012.52 1012.72 1013.08 1013.48 1013.80 1014.00 1014.16 1014.44 1014.76 1014.88 1015.00 1015.12 1015.16 1015.08 1015.12 1015.08 1015.00 1015.16 1015.36 1015.60 1015.48
1013.80 1013.72 1013.44 1013.68 1013.84 1013.80 1013.64 1013.72 1013.64 1013.68 1013.48 1013.28 1013.28 1013.28 1013.28 1013.32 1013.64 1013.56 1013.48 1013.64 1013.56 1013.08 1012.80 1012.68 1012.56 1012.48 1012.40 1012.28 1012.12 1012.20 1012.16 1012.00 1011.88 1011.92 1011.96 1012.08 1012.24 1012.40 1012.76 1013.00 1013.24 1013.24 1013.12 1013.12 1013.60 1014.16 1014.32 1014.24 1014.32 1014.64 1014.96 1015.20 1015.24 1015.20 1015.20 1015.24 1015.32 1015.40 1015.20 1015.36 1015.48 1015.48 1015.32
1013.72 1013.64 1013.40 1013.08 1013.36 1013.52 1013.64 1013.84 1013.76 1013.72 1013.68 1013.56 1013.52 1013.52 1013.52 1013.56 1013.72 1013.72 1013.72 1013.80 1013.60 1013.32 1013.12 1013.04 1012.96 1012.88 1012.88 1012.84 1012.68 1012.48 1012.52 1012.56 1012.48 1012.52 1012.56 1012.60 1012.68 1012.80 1013.12 1013.28 1013.44 1013.72 1014.04 1014.16 1013.96 1014.40 1014.72 1014.68 1014.56 1014.76 1015.20 1015.40 1015.56 1015.60 1015.64 1015.52 1015.48 1015.60 1015.48 1015.48 1015.52 1015.64 1015.76
1013.88 1013.84 1013.72 1013.88 1013.92 1013.72 1013.56 1013.76 1013.96 1013.96 1013.96 1013.72 1013.76 1013.76 1013.64 1013.52 1013.64 1013.76 1013.92 1013.72 1013.36 1013.40 1013.36 1013.32 1013.36 1013.36 1013.44 1013.40 1013.12 1013.00 1013.20 1013.24 1013.16 1013.12 1013.20 1013.32 1013.28 1013.36 1013.64 1013.92 1013.96 1014.16 1014.40 1014.44 1014.52 1014.48 1014.76 1015.00 1014.92 1015.08 1015.36 1015.40 1015.60 1015.80 1015.84 1015.80 1015.80 1015.88 1015.92 1015.92 1016.04 1016.16 1016.32
1013.88 1013.80 1013.72 1013.84 1014.00 1013.92 1013.76 1013.80 1014.00 1014.12 1014.24 1014.08 1013.92 1014.00 1013.92 1013.64 1013.68 1014.08 1013.88 1013.44 1013.32 1013.24 1013.36 1013.52 1013.52 1013.48 1013.68 1013.68 1013.56 1013.48 1013.52 1013.76 1013.88 1013.88 1014.00 1014.04 1013.96 1013.80 1013.92 1014.00 1014.00 1014.16 1014.52 1014.72 1014.92 1015.04 1015.16 1015.32 1015.32 1015.36 1015.44 1015.72 1015.92 1016.08 1016.04 1016.00 1016.04 1016.28 1016.48 1016.56 1016.60 1016.76 1016.88
1014.08 1014.08 1014.24 1014.36 1014.24 1014.08 1014.04 1013.96 1014.20 1014.40 1014.48 1014.68 1014.52 1014.32 1014.04 1013.80 1013.72 1013.84 1013.72 1013.48 1013.24 1013.28 1013.24 1013.36 1013.52 1013.68 1013.76 1013.80 1013.88 1013.92 1013.84 1013.84 1013.84 1013.96 1014.00 1014.04 1013.96 1013.88 1014.04 1014.12 1014.16 1014.36 1014.76 1015.16 1015.44 1015.44 1015.32 1015.36 1015.36 1015.52 1015.80 1016.08 1016.16 1016.16 1016.20 1016.32 1016.56 1016.76 1016.92 1016.96 1017.00 1017.08 1017.24
1014.28 1014.36 1014.40 1014.36 1014.44 1014.40 1014.48 1014.56 1014.68 1014.80 1014.84 1015.00 1015.00 1014.76 1014.52 1014.16 1014.04 1014.08 1014.04 1013.84 1013.64 1013.68 1013.60 1013.56 1013.52 1013.60 1013.72 1013.88 1014.12 1014.24 1014.24 1014.24 1014.20 1014.04 1014.24 1014.44 1014.40 1014.44 1014.60 1014.84 1014.96 1015.20 1015.48 1015.64 1015.56 1015.56 1015.72 1015.56 1015.48 1015.68 1015.96 1016.36 1016.40 1016.48 1016.56 1016.84 1016.96 1017.04 1017.08 1017.32 1017.40 1017.48 1017.48
1014.24 1014.40 1014.56 1014.64 1014.76 1014.76 1014.96 1015.04 1015.12 1015.16 1015.16 1015.28 1015.12 1015.08 1015.16 1015.00 1014.64 1014.32 1014.36 1014.24 1014.20 1014.20 1014.16 1014.12 1013.96 1013.80 1013.80 1013.96 1014.20 1014.56 1014.76 1014.80 1014.88 1015.00 1015.24 1015.44 1015.72 1016.20 1016.48 1016.24 1015.64 1015.60 1016.00 1016.44 1016.68 1016.36 1015.84 1015.76 1015.80 1015.84 1015.96 1016.12 1016.40 1016.56 1016.84 1017.08 1017.40 1017.68 1017.72 1017.52 1017.36 1017.24 1017.44
1014.20 1014.36 1014.64 1014.72 1014.84 1014.96 1015.08 1015.20 1015.28 1015.44 1015.48 1015.44 1015.36 1015.40 1015.28 1015.08 1014.96 1014.64 1014.40 1014.32 1014.36 1014.48 1014.68 1014.56 1014.32 1014.08 1014.00 1013.92 1014.08 1014.44 1014.80 1015.04 1015.24 1015.48 1015.64 1015.72 1015.88 1016.20 1017.00 1017.56 1017.48 1017.08 1016.56 1016.92 1017.24 1016.96 1016.56 1016.24 1016.28 1016.24 1016.28 1016.76 1017.08 1016.84 1016.64 1017.20 1017.80 1018.28 1018.04 1017.72 1017.68 1017.68 1017.64
1014.24 1014.44 1014.68 1014.76 1015.08 1015.24 1015.32 1015.40 1015.44 1015.64 1015.68 1015.56 1015.48 1015.56 1015.44 1015.16 1015.12 1014.92 1014.60 1014.48 1014.48 1014.44 1014.68 1014.84 1014.88 1014.76 1014.80 1014.84 1014.96 1015.00 1014.88 1014.92 1015.12 1015.32 1015.48 1015.56 1015.68 1015.92 1016.24 1016.84 1017.80 1018.36 1018.28 1018.00 1017.80 1017.44 1017.28 1017.04 1016.76 1016.64 1016.72 1016.72 1017.20 1017.76 1017.92 1018.12 1018.40 1018.24 1018.04 1018.08 1018.12 1018.16 1018.20
1014.08 1014.32 1014.56 1014.76 1015.00 1015.28 1015.40 1015.48 1015.56 1015.76 1015.96 1015.80 1015.60 1015.56 1015.56 1015.56 1015.20 1015.00 1014.76 1014.52 1014.36 1014.32 1014.56 1014.76 1015.04 1015.28 1015.40 1015.52 1015.64 1015.64 1015.52 1015.48 1015.52 1015.56 1015.68 1015.84 1015.92 1016.04 1016.24 1016.40 1016.80 1017.68 1018.48 1018.32 1017.92 1017.92 1017.88 1017.80 1017.64 1017.52 1017.48 1017.44 1017.48 1017.76 1018.56 1018.84 1018.68 1018.44 1018.48 1018.56 1018.60 1018.68 1018.76
Wind_Speed
4 4 4 2 2 4 4 4 5 6 6 7 5 5 6 6 7 7 7 9 11 12 13 13 11 9 10 10 10 10 10 9 8 8 8 8 7 8 8 8 9 7 8 8 8 8 7 7 7 7 7 7 7 7 7 7 7 6 6 5 5 5 5
4 4 4 4 3 2 2 3 4 6 6 6 6 6 6 7 6 8 8 8 10 11 12 13 13 11 10 10 10 11 11 10 10 8 8 7 7 6 7 8 7 8 7 7 6 6 6 7 8 7 7 7 8 7 8 8 8 7 6 5 5 5 5
4 4 4 3 3 2 2 2 3 4 6 6 6 6 7 8 8 8 8 8 9 10 11 12 13 13 12 11 10 11 11 11 11 11 10 9 10 10 8 7 7 7 8 8 6 6 7 7 7 7 8 8 8 9 8 8 7 7 6 5 5 6 5
4 4 3 3 3 2 2 2 3 3 4 6 6 7 7 7 8 7 8 9 9 10 11 12 13 13 12 13 12 11 11 12 11 11 12 10 10 10 9 8 7 8 7 7 8 7 6 7 8 8 8 7 7 7 8 8 8 8 7 6 6 6 5
3 2 2 3 3 3 3 3 3 3 5 5 6 7 8 9 8 8 9 10 10 11 11 12 11 12 11 12 10 10 12 12 12 11 10 10 10 9 9 10 9 9 8 7 7 6 6 6 8 8 8 8 8 7 8 7 8 7 6 6 6 6 6
3 3 3 3 3 3 3 4 4 4 5 6 6 6 7 8 9 11 12 11 11 11 11 11 12 11 12 12 11 11 12 12 11 12 11 10 10 10 10 10 10 10 10 9 8 8 8 8 8 8 8 9 9 9 8 8 8 8 8 7 7 7 6
2 3 3 3 4 4 4 4 5 5 5 5 6 6 7 7 8 10 11 12 11 12 12 12 12 12 11 11 12 12 13 13 13 14 12 13 12 11 11 10 10 10 9 9 9 8 9 9 9 8 8 8 7 8 7 7 7 6 6 6 6 7 7
3 3 3 4 5 5 5 5 6 6 5 5 5 6 6 7 8 8 9 11 11 10 10 12 12 11 11 11 11 12 13 13 13 13 12 14 13 13 12 11 11 11 10 10 9 9 9 9 9 9 9 9 8 7 7 7 7 7 7 7 8 8 7
2 2 3 5 6 6 6 6 6 6 6 6 6 5 6 7 6 7 8 9 11 10 10 10 11 10 10 10 11 12 13 13 12 13 14 15 13 14 13 12 12 11 12 11 10 10 10 10 10 9 8 9 8 7 7 7 7 7 8 7 7 7 7
2 3 4 4 5 6 6 6 6 6 6 6 6 6 6 6 6 6 8 9 9 12 11 10 9 9 10 10 12 12 13 13 13 14 14 14 13 14 14 13 12 11 12 12 11 10 10 10 10 9 8 8 8 8 7 7 8 8 8 8 7 7 7
2 3 4 5 6 6 6 6 6 5 5 6 6 6 6 5 5 6 7 8 10 11 11 10 9 9 10 11 12 12 12 13 13 14 14 14 13 15 14 14 12 11 12 12 12 12 11 10 10 9 9 9 9 9 8 8 9 9 8 7 6 6 6
2 3 3 5 6 6 6 6 6 6 6 6 6 6 7 6 6 6 6 8 8 9 10 10 10 10 11 10 11 11 13 13 13 14 15 14 14 15 14 13 13 12 11 12 12 11 11 10 9 10 10 9 9 8 8 8 8 8 8 8 8 8 7
3 2 3 4 5 5 5 6 7 7 7 7 8 8 7 6 6 6 6 7 8 8 8 10 11 12 11 11 12 11 11 12 12 12 12 13 13 13 13 13 13 13 12 11 12 12 11 10 10 8 8 9 9 9 8 8 8 8 8 8 8 8 8
2 2 3 3 4 6 6 6 6 8 8 8 8 8 8 8 6 6 5 6 6 6 7 7 10 12 13 13 12 12 11 11 11 11 11 10 10 11 11 12 12 13 12 11 12 12 12 12 11 10 9 9 9 9 8 8 8 8 8 8 8 8 8
3 3 4 5 4 6 6 7 7 7 8 8 8 8 8 7 8 7 6 5 6 7 7 7 8 10 12 13 13 13 12 10 9 9 10 10 9 10 11 11 11 11 11 11 11 10 11 11 12 11 10 10 9 8 8 8 8 8 8 9 9 8 7
3 3 5 6 6 6 6 7 8 8 8 9 9 9 9 7 7 7 8 8 7 6 7 7 8 9 11 12 12 12 11 11 9 8 8 9 10 9 9 10 10 10 10 9 10 10 9 10 10 11 11 10 10 9 8 8 8 6 1 4 3 3 4
2 4 5 5 6 6 7 8 8 8 8 8 8 9 9 8 8 8 8 8 8 8 7 7 8 9 10 11 12 12 11 10 10 9 9 9 9 9 9 9 8 9 10 10 9 9 9 10 11 11 10 11 10 10 9 9 5 10 8 5 2 5 6
3 4 5 6 6 7 8 8 8 9 9 9 9 9 9 10 9 9 9 8 8 9 8 7 9 9 10 10 10 11 11 11 10 10 10 9 9 9 8 8 9 9 10 10 11 10 10 11 11 10 11 10 10 10 8 7 8 10 8 5 5 5 5
3 4 4 5 6 7 8 9 9 9 9 8 8 9 9 9 9 8 8 9 9 8 9 9 9 10 10 10 10 11 12 11 11 11 11 12 12 10 9 9 10 10 11 11 10 10 10 10 10 10 9 10 9 8 9 3 7 10 6 6 3 3 6
3 3 4 5 5 6 8 8 8 8 9 9 9 9 9 9 9 9 9 8 8 8 10 10 10 10 11 11 11 11 12 12 12 12 12 11 11 11 11 10 9 9 9 9 10 10 9 10 10 9 9 9 9 7 6 7 7 7 6 5 3 2 5
3 3 5 5 6 7 8 8 9 8 9 9 10 9 9 8 8 8 8 7 8 9 9 9 10 10 11 11 11 11 11 12 12 11 9 10 11 11 10 10 9 9 8 8 9 9 9 9 10 9 9 9 8 8 4 6 7 6 4 3 1 1 7
2 3 4 5 6 7 7 8 8 8 8 9 9 8 8 9 8 8 8 7 6 7 8 7 8 9 9 9 8 8 8 9 9 11 7 7 10 11 10 10 10 9 8 8 8 7 8 8 8 8 8 8 6 7 8 6 6 3 1 0 4 5 6
2 4 3 5 6 7 6 7 7 7 8 8 8 8 8 9 8 8 7 6 6 7 8 7 6 5 7 7 7 7 6 6 7 9 10 8 9 10 10 10 9 9 7 7 7 7 7 7 6 5 6 7 5 5 8 6 4 3 2 3 3 6 4
2 2 3 5 5 5 6 6 6 6 6 7 7 8 8 7 7 7 7 7 7 7 8 8 8 8 4 7 7 6 6 6 8 8 8 9 10 10 8 8 7 7 7 7 7 5 5 3 5 6 7 5 2 2 7 7 6 5 5 6 5 6 4
1 3 3 3 5 5 5 6 6 6 7 7 9 9 8 8 8 7 7 8 8 8 8 9 9 8 8 8 3 6 7 7 6 7 7 7 6 4 6 6 5 5 5 5 4 4 5 5 7 7 7 7 7 10 7 4 5 2 5 6 6 5 1
1 4 3 4 5 5 4 4 5 6 8 8 9 8 7 7 6 7 7 8 7 9 9 9 9 7 6 5 6 6 5 1 5 8 8 7 5 5 6 3 4 7 6 5 5 6 6 8 8 9 8 7 6 6 4 4 3 3 4 4 6 7 3
2 0 2 4 6 5 4 4 5 6 8 8 8 7 7 7 7 7 8 8 8 9 9 8 7 8 7 7 7 7 7 7 7 7 7 6 5 5 5 3 3 4 7 9 7 9 8 8 9 10 9 8 7 7 6 4 2 1 3 6 6 7 5
1 2 1 5 4 4 4 4 5 6 7 8 8 8 7 7 7 7 7 7 8 8 7 7 7 8 8 9 9 9 9 9 8 8 8 8 8 9 8 6 5 5 5 6 8 10 8 7 6 7 9 7 7 6 6 6 7 5 2 5 5 5 1
3 2 2 4 3 3 3 4 6 7 8 8 9 8 8 9 8 7 7 8 8 7 7 7 7 9 10 11 11 10 10 11 12 10 9 10 10 11 11 10 9 8 6 9 8 7 8 8 7 7 7 7 5 5 5 6 5 7 3 3 5 8 8
5 4 4 5 5 4 5 6 6 7 9 8 8 9 9 9 9 8 8 9 7 7 8 8 8 9 10 10 11 11 12 12 13 12 10 11 11 13 12 8 7 9 8 7 8 7 7 6 6 8 7 8 7 5 5 6 6 8 12 13 16 16 16
6 6 7 7 7 6 6 7 8 9 9 8 10 9 9 9 9 10 10 8 8 9 9 9 9 10 10 11 11 12 11 12 11 11 11 10 9 11 11 11 10 9 7 7 7 7 8 7 8 7 7 9 8 7 7 7 9 10 15 20 19 20 19
6 6 7 7 7 6 7 8 10 10 10 10 10 9 7 7 7 8 8 8 8 9 9 8 10 12 11 11 11 12 10 11 12 12 10 9 8 8 7 8 9 9 8 8 8 8 7 7 7 8 8 8 7 7 7 9 9 11 11 13 17 17 20
7 6 7 7 6 6 7 8 10 11 11 11 9 7 6 8 7 7 6 6 7 8 8 9 10 10 10 11 10 10 8 8 7 7 8 9 9 9 10 9 8 8 8 7 7 6 7 7 7 9 9 8 8 8 9 9 10 9 9 9 10 11 13
8 7 7 7 7 7 8 9 11 11 11 10 8 8 9 8 8 8 7 8 8 8 8 9 9 10 11 12 10 9 9 9 12 12 10 10 10 9 9 8 7 7 7 5 5 6 5 6 9 10 9 8 9 8 8 9 5 6 8 10 9 9 8
7 8 7 7 7 7 7 8 10 10 10 9 8 8 7 8 8 7 7 7 7 7 8 8 9 10 11 11 10 10 8 8 9 9 9 9 10 10 9 7 6 6 7 7 6 4 5 7 6 7 8 8 8 9 10 8 9 5 5 3 4 8 9
8 9 9 8 7 8 9 9 10 9 9 9 8 7 7 9 7 6 6 7 7 8 8 7 7 9 9 8 9 10 9 9 9 8 8 8 8 9 10 15 15 10 6 6 10 13 12 10 5 5 6 6 6 5 9 11 7 3 7 12 13 13 13
8 8 8 9 9 9 9 9 10 9 9 8 7 8 7 7 6 5 6 7 6 8 8 7 7 8 8 8 8 7 8 8 9 8 8 8 8 8 9 9 11 16 14 13 12 13 14 15 16 16 12 8 9 10 14 11 8 10 14 14 14 14 14
8 8 8 7 8 9 9 10 10 10 8 6 6 7 8 6 6 5 7 7 8 9 9 8 8 8 8 8 7 7 7 7 8 8 9 8 8 8 8 9 10 11 13 15 16 17 17 16 16 15 15 13 11 9 7 8 10 14 14 14 14 14 13
Wind_Direction
73 76 100 165 194 235 237 218 231 232 227 223 227 250 246 220 213 210 206 196 197 189 183 185 197 204 204 202 201 203 205 200 198 201 203 204 207 198 195 199 196 207 207 202 205 213 206 209 226 221 214 208 221 215 221 226 228 229 230 231 238 252 255
55 59 54 45 48 43 295 269 252 249 235 226 220 212 239 245 228 217 215 209 206 204 194 187 186 193 203 207 202 199 202 204 199 198 204 203 206 207 204 200 208 195 219 226 205 205 206 204 213 218 221 214 220 220 214 217 224 231 238 216 233 239 237
43 34 50 19 34 26 3 303 271 261 259 243 233 228 219 223 230 223 224 222 218 212 207 202 195 191 191 200 209 203 198 201 200 197 201 200 198 205 203 207 209 209 206 207 219 211 203 214 202 212 217 222 222 205 218 219 217 225 224 229 237 230 229
47 25 31 37 28 22 3 2 332 310 284 262 247 237 239 237 234 233 231 234 227 221 215 209 203 203 194 189 201 207 205 200 204 204 205 205 201 203 204 202 212 216 205 212 207 215 219 205 201 200 214 223 227 223 212 219 221 214 219 217 233 233 234
61 40 31 27 20 25 359 352 331 313 301 298 290 273 251 235 239 248 242 234 233 232 223 218 210 210 208 199 194 200 207 207 202 207 211 210 208 207 206 208 202 211 211 209 213 213 221 226 212 202 204 217 223 219 225 221 227 221 220 216 229 233 231
42 47 42 24 24 4 1 338 331 321 316 308 298 283 279 263 239 236 242 235 231 233 233 227 225 210 210 210 209 199 200 207 210 206 207 208 208 210 207 208 209 208 208 214 214 208 204 215 222 217 213 209 217 223 218 217 218 219 215 220 232 238 239
27 27 21 15 12 357 354 351 339 329 315 313 304 293 278 268 259 244 238 243 231 225 231 227 223 220 209 213 214 210 201 201 205 210 208 207 203 212 213 209 210 209 214 207 214 210 204 207 217 223 222 231 230 227 224 224 233 227 224 222 225 236 248
32 12 15 7 1 1 346 353 338 328 329 317 317 308 301 279 260 250 244 240 244 235 228 233 223 222 216 211 216 215 211 206 200 207 212 213 205 205 208 212 209 211 211 214 209 211 213 212 211 210 219 220 220 230 234 225 221 238 233 227 228 234 237
56 26 8 1 356 348 346 343 336 325 324 325 321 316 307 300 283 260 243 233 234 245 241 234 235 224 220 216 216 215 214 213 207 204 209 214 214 209 209 206 212 210 214 215 214 207 215 212 217 218 214 221 224 222 228 228 229 226 235 239 238 243 248
33 8 11 357 352 340 336 331 330 327 326 328 321 321 314 298 294 274 250 235 228 230 241 241 240 239 225 222 223 219 216 212 216 211 208 211 213 217 212 211 208 208 214 217 218 215 208 218 219 213 212 222 225 225 232 229 225 230 229 229 237 245 250
45 6 2 355 343 337 331 332 333 331 327 323 327 329 327 318 298 291 265 247 228 225 225 232 238 239 239 224 225 231 224 218 214 215 211 213 215 215 216 215 214 207 212 214 217 217 214 206 216 217 208 215 219 223 226 228 226 226 233 239 241 242 249
25 15 360 346 338 332 336 330 325 339 342 330 326 330 331 329 312 293 277 253 245 237 221 215 223 228 231 241 233 225 233 225 218 216 212 213 216 217 216 216 216 214 207 213 217 218 220 215 209 213 211 216 225 228 224 224 230 232 236 239 241 240 237
354 348 342 343 336 331 330 323 332 335 341 336 331 329 323 320 316 308 293 269 248 239 233 226 220 221 225 227 232 231 228 230 224 222 219 212 218 221 218 218 218 218 216 209 212 214 217 218 217 214 217 213 223 230 230 228 229 231 234 241 246 248 248
285 307 338 333 335 336 330 331 338 330 328 322 318 321 322 317 312 309 301 287 264 242 236 229 223 218 219 221 222 229 228 228 228 222 224 223 217 221 225 222 219 217 220 217 214 215 215 216 215 215 215 221 228 232 233 229 230 232 234 237 240 239 237
315 327 328 332 338 331 333 333 337 328 325 318 312 310 317 316 313 309 306 292 273 252 240 233 228 224 219 218 220 220 222 220 226 226 218 221 221 220 221 224 226 226 223 223 226 224 221 218 220 217 218 217 223 227 233 237 232 232 223 223 231 243 251
309 328 326 330 335 333 337 338 330 329 327 322 321 320 319 315 312 312 307 303 297 273 246 235 232 227 224 222 218 220 217 213 214 215 215 212 217 219 223 227 222 221 223 227 227 234 236 230 227 226 221 223 223 225 224 228 234 223 281 15 291 256 251
311 315 319 323 331 331 333 330 333 330 325 321 319 320 315 315 318 316 308 301 301 291 268 242 232 230 226 224 221 220 216 211 209 206 206 205 209 212 213 220 225 221 216 213 218 224 228 233 233 229 226 228 232 230 226 223 208 110 129 144 194 251 251
309 314 317 325 326 333 332 332 336 333 332 334 332 324 318 325 328 317 308 303 293 293 286 260 239 230 227 225 223 217 218 215 204 199 202 206 207 207 204 205 215 220 215 215 210 212 222 226 230 232 235 235 231 229 231 231 93 118 119 146 172 227 257
295 308 317 320 320 327 333 333 334 333 329 330 331 328 325 322 316 310 306 300 296 285 280 273 248 233 227 223 223 222 218 216 210 205 206 212 214 209 204 202 202 209 218 220 217 212 215 221 226 228 227 236 239 238 233 152 85 101 111 121 146 191 248
296 307 309 315 323 329 334 333 330 332 330 328 330 328 319 314 307 305 304 300 295 284 268 256 251 238 228 220 220 219 216 216 212 211 209 210 213 211 209 207 206 213 221 222 219 216 213 215 218 223 227 229 236 235 225 94 59 65 78 87 97 140 250
293 329 313 320 333 335 336 333 329 328 327 329 329 320 317 315 316 314 307 314 314 301 284 263 251 241 229 224 220 218 216 213 210 215 218 212 209 208 209 212 212 214 217 216 217 214 211 214 214 212 217 219 218 218 125 77 52 53 51 65 264 223 255
329 329 325 341 337 332 335 332 328 328 330 324 317 322 323 327 330 322 327 326 323 325 315 294 258 245 227 223 223 224 222 214 206 206 220 220 213 210 207 209 211 211 211 219 220 218 214 210 217 208 202 205 201 201 100 93 56 73 70 355 262 267 249
332 334 333 327 332 332 333 325 330 340 327 325 323 328 338 338 339 331 332 338 341 347 356 350 327 253 216 215 208 204 210 200 196 205 213 218 221 221 218 213 212 212 211 209 216 217 212 207 205 198 197 188 186 197 111 103 58 24 293 252 277 257 240
272 296 321 353 323 336 333 339 343 342 329 326 334 352 343 353 346 338 346 346 357 8 15 19 15 351 278 214 190 198 211 215 211 207 209 212 215 216 215 217 215 203 203 208 200 188 186 149 99 64 42 27 73 324 113 95 68 1 328 299 287 293 281
1 310 350 309 322 358 351 352 353 344 344 355 360 356 356 359 10 9 7 3 6 16 15 13 7 5 7 0 311 215 204 207 220 223 216 218 214 214 213 210 198 171 187 180 161 134 95 97 91 78 70 65 64 57 89 115 105 66 333 314 309 293 272
12 0 354 309 354 6 9 6 1 14 13 13 8 0 9 19 25 23 17 14 16 21 18 6 1 3 13 23 31 33 40 64 222 227 223 206 168 196 221 196 165 164 151 102 76 95 108 106 105 101 90 88 88 91 97 106 99 47 346 312 313 305 309
56 266 17 350 29 358 29 23 21 28 29 21 12 13 20 24 28 30 27 21 22 20 13 7 8 13 23 41 47 49 56 50 47 52 50 48 74 63 55 67 113 145 133 118 109 112 110 107 107 105 99 91 83 80 66 44 359 61 11 338 325 355 345
166 120 125 80 64 48 50 36 33 34 38 34 31 28 31 34 38 38 31 26 28 20 13 22 31 34 39 46 48 45 53 58 58 63 68 70 77 75 63 46 72 92 86 101 113 116 115 110 108 105 99 83 74 68 53 38 27 341 50 360 358 62 305
111 75 34 114 86 62 30 51 45 45 40 37 37 38 42 50 52 46 43 41 33 29 33 35 41 52 56 57 60 57 54 59 60 58 69 76 75 79 72 63 48 43 65 95 84 76 87 94 97 92 86 79 63 54 39 31 33 25 19 59 117 129 106
99 100 66 48 63 72 70 62 56 57 52 47 46 47 50 55 57 55 49 46 39 41 47 48 55 58 58 62 66 67 64 63 66 67 67 75 80 82 82 68 70 77 63 57 86 96 93 78 83 91 93 96 88 72 62 60 71 59 72 85 89 86 85
86 77 78 72 66 59 65 70 67 65 61 60 62 56 59 57 59 55 51 47 58 61 60 61 64 65 62 65 71 70 68 63 61 64 65 67 78 85 83 84 82 80 70 65 67 83 91 94 90 88 95 85 74 71 67 72 80 79 78 83 83 85 85
109 104 96 91 78 68 81 79 70 68 66 61 56 53 43 51 45 40 43 59 66 68 76 75 73 72 67 65 64 68 67 73 73 71 67 63 56 66 77 84 87 85 81 83 88 88 92 96 92 89 86 85 85 81 84 80 78 79 81 81 85 83 82
109 100 85 76 76 74 67 72 73 69 66 59 44 44 49 48 45 44 34 50 67 69 74 79 76 73 67 62 60 57 59 70 79 81 75 72 67 61 53 45 50 62 70 70 64 67 85 84 86 90 87 91 94 93 89 89 87 90 88 89 88 93 94
122 115 101 91 82 76 76 71 70 67 65 65 57 46 37 36 42 35 32 40 45 53 55 63 70 77 76 74 64 54 54 56 51 57 59 47 46 53 59 59 54 48 41 39 68 99 90 94 100 101 102 103 102 98 85 74 67 71 97 101 101 104 103
127 124 126 112 94 90 88 82 78 75 74 70 64 59 59 44 37 38 51 58 60 57 62 70 75 82 89 87 81 74 65 58 58 62 66 67 62 55 36 16 26 58 61 38 14 3 89 109 93 92 102 107 107 106 97 95 89 77 352 49 80 107 118
136 134 128 119 107 99 99 95 88 80 77 72 69 67 65 68 55 49 59 64 67 70 65 60 69 76 76 81 90 97 97 93 83 76 73 73 81 82 72 59 49 27 50 61 28 43 40 47 72 59 90 77 43 58 108 114 107 88 89 87 79 74 73
137 136 135 135 126 115 107 107 102 93 85 85 88 88 79 82 92 75 68 75 79 75 75 72 67 69 72 69 70 71 85 91 90 87 86 83 81 82 87 90 68 57 54 64 64 54 50 52 57 60 60 81 94 62 49 73 96 98 88 83 82 82 83
135 130 131 135 135 129 123 117 112 107 90 62 74 96 103 89 80 92 101 94 86 85 85 86 83 77 78 80 83 80 81 83 81 83 83 81 78 77 82 86 89 75 53 58 65 61 59 56 56 58 63 66 83 103 87 68 80 89 87 84 81 79 75